Location: East Irvine
(33.6759°N, 117.7598°W)
Time: 05:35:59
(UTC+00:00)

Daily predictions for brighter satellites

Satellite Brightness Start Highest point End
(mag) Time Altitude Azimuth Time Altitude Azimuth Time Altitude Azimuth
ARIANE 5 R/B 2.7 01:07:06 10° SE 01:11:50 47° ENE 01:16:36 10° N
COSMO-SKYMED 1 4.0 01:10:23 10° NE 01:13:01 16° E 01:15:37 10° SE
OAO 3 Copernicus 4.4 01:08:56 10° W 01:13:59 76° N 01:19:03 10° E
SAR-Lupe-3 3.7 01:11:21 10° NNE 01:14:00 73° ESE 01:16:37 10° S
Cosmos 1812 3.7 01:16:11 10° SE 01:17:59 15° E 01:19:46 10° NE
Tsikada Rocket 4.1 01:13:01 10° N 01:19:23 64° E 01:25:38 10° SSE
CORIOLIS 4.1 01:14:02 10° SSE 01:19:24 77° ENE 01:24:45 10° N
SL-4 R/B 1.9 01:17:22 10° NW 01:20:43 47° NE 01:24:15 10° ESE
Cosmos 1025 Rocket 4.3 01:16:45 10° NNW 01:20:52 45° W 01:24:55 10° SSW
SL-16 R/B 4.2 01:17:06 10° N 01:22:39 34° WNW 01:28:10 10° SW
Cosmos 2278 Rocket 2.4 01:19:01 10° S 01:24:25 50° ESE 01:29:52 10° NNE
Tiangong -2.0 01:23:25 10° WNW 01:26:35 76° SSW 01:29:44 10° ESE
SL-12 R/B(2) 4.2 01:19:21 10° SSW 01:26:52 84° ESE 01:35:50 10° NNE
Cosmos 2082 Rocket 4.0 01:26:05 10° NE 01:27:04 10° NE 01:28:04 10° ENE
IGS 5A 4.4 01:23:59 10° S 01:27:50 50° W 01:31:43 10° NNW
Cosmos 1943 Rocket 2.3 01:22:54 10° S 01:28:25 57° ESE 01:33:53 10° NNE
OAO 2 Rocket 3.3 01:24:24 10° W 01:29:26 86° N 01:34:07 13° E
YAOGAN 1 3.9 01:30:02 10° ESE 01:32:51 17° ENE 01:35:40 10° NNE
IRS-1C 4.1 01:28:54 10° SSE 01:34:12 80° ENE 01:39:32 10° N
SPOT 1/Viking Rocket 4.3 01:30:03 10° SE 01:34:31 30° ENE 01:39:00 10° N
NOSS 3-4 (C) 4.5 01:27:59 10° NW 01:35:15 68° WSW 01:43:36 10° SSE
Cosmos 44 Rocket 3.3 01:31:09 10° SSW 01:35:44 58° ESE 01:40:29 10° NE
SAR-Lupe-1 4.1 01:34:56 10° S 01:38:28 84° WSW 01:42:03 10° NNW
SMAP 3.4 01:34:08 10° S 01:38:45 69° WSW 01:43:23 10° NNW
RESURS DK-1 4.1 01:39:40 10° NNE 01:41:22 14° NE 01:41:22 14° NE
Cosmos 407 Rocket 3.5 01:37:06 10° SSW 01:42:19 89° ESE 01:47:30 10° NNE
Okean 2 Rocket 4.3 01:39:44 10° SE 01:43:04 21° E 01:45:20 15° NE
CZ-2D R/B 3.1 01:41:03 10° S 01:44:11 67° W 01:47:20 10° NNW
ISS -2.1 01:41:22 10° W 01:44:18 28° NW 01:47:13 10° NNE
CZ-2D R/B 3.9 01:45:46 10° SE 01:49:30 36° ENE 01:53:18 10° N
SJ 16-02 2.2 01:45:59 10° SSE 01:49:39 28° E 01:51:41 19° ENE
Landsat 7 4.1 01:47:24 10° S 01:52:02 71° W 01:56:40 10° NNW
SJ-12 4.3 01:48:20 10° S 01:52:04 61° WSW 01:55:50 10° NNW
Helios 1A Rocket 2.4 01:51:54 10° NNE 01:55:14 59° E 01:58:34 10° S
Spot 4 Rocket 4.3 01:51:17 10° SE 01:56:00 41° ENE 02:00:46 10° N
Timation 2 Rocket 4.5 01:53:52 10° SSW 02:00:39 70° WNW 02:07:32 10° NNE
AQUARIUS 4.4 01:56:19 10° S 02:00:41 70° WSW 02:05:05 10° NNW
ATLAS 5 CENTAUR R/B 2.0 01:59:35 10° NNW 02:04:22 62° ENE 02:10:16 10° SE
Cosmos 371 Rocket 3.7 02:04:23 10° SSE 02:08:46 37° E 02:10:11 30° ENE
DNEPR-1 R/B 4.4 02:05:15 10° NW 02:10:00 66° WSW 02:15:41 10° SSE
MOS 1 Rocket 3.2 02:05:54 10° S 02:10:07 77° W 02:14:28 10° NNW
Cosmos 2058 3.1 02:06:30 10° N 02:10:17 41° E 02:14:03 10° SSE
Cosmos 1833 Rocket 3.2 02:05:25 10° NNW 02:10:58 61° WSW 02:16:30 10° S
USA 215 3.4 02:05:01 10° SE 02:11:32 77° SW 02:18:05 10° NW
Cosmos 1656 Rocket 4.4 02:10:15 10° SSE 02:14:58 30° ESE 02:15:15 30° E
Aureole 3 Rocket 3.5 02:13:39 10° SSW 02:16:49 42° W 02:19:43 10° N
Cosmos 304 Rocket 3.9 02:12:53 10° S 02:17:24 48° ESE 02:18:49 36° NE
Delta 2 Rocket 4.4 02:14:47 10° W 02:18:31 37° SSW 02:20:35 21° SSE
NOAA 6 4.2 02:16:22 10° SE 02:21:15 46° ENE 02:26:09 10° N
Cosmos 1400 Rocket 2.5 02:19:30 10° S 02:23:17 72° E 02:24:09 50° NNE
Cosmos 1763 Rocket 3.3 02:18:07 10° NNW 02:23:20 77° ENE 02:28:26 10° SSE
Cosmos 2151 Rocket 3.5 02:20:35 10° S 02:25:01 87° W 02:29:32 10° N
OAO 3 Rocket 3.0 02:21:04 10° W 02:25:43 83° N 02:26:46 53° ENE
Cosmos 540 Rocket 3.3 02:20:46 10° N 02:25:52 67° ENE 02:30:56 10° SSE
SJ-7 4.1 02:25:53 10° S 02:29:34 85° W 02:33:15 10° NNW
Cosmos 2251 Rocket 4.0 02:25:15 10° SSW 02:30:25 61° WNW 02:35:40 10° N
Sich 1 Rocket 3.5 02:27:36 10° S 02:32:03 69° E 02:33:11 48° NNE
Cosmos 1464 Rocket 4.1 02:25:53 10° S 02:32:13 81° W 02:38:30 10° N
SL-19 R/B 4.0 02:31:57 10° SSE 02:37:14 90° ESE 02:42:28 10° NNW
Centaur AC-119 4.3 02:32:20 10° WSW 02:38:50 51° S 02:42:29 33° ESE
Okean 1 Rocket 2.9 02:38:52 10° S 02:43:17 88° W 02:43:51 68° N
BlueWalker 3 4.0 02:40:08 10° SSW 02:41:14 17° S 02:41:14 17° S
Cosmos 2034 Rocket 3.8 02:37:23 10° S 02:43:32 81° E 02:49:46 10° N
Meteor 2-1 Rocket 4.2 02:41:39 10° S 02:47:27 74° E 02:49:52 37° NNE
COSMO-SKYMED 1 4.2 02:44:43 10° N 02:48:20 30° WNW 02:51:56 10° SW
USA 281 4.4 02:54:09 26° NNE 02:54:09 26° NNE 02:57:23 10° N
H-II Stage 2 2.9 02:44:44 10° W 02:55:32 50° S 02:55:53 48° S
OAO 3 Copernicus 4.3 02:53:27 10° W 02:58:07 76° W 02:58:07 76° W
YAOGAN 1 4.3 03:04:38 10° SSW 03:08:25 31° W 03:12:13 10° NW
Cosmos 2278 Rocket 4.5 03:04:41 10° WSW 03:08:44 20° WNW 03:12:47 10° NNW
Cosmos 2082 Rocket 2.9 03:06:17 10° NNW 03:09:59 43° NNW 03:09:59 43° NNW
OAO 2 Rocket 4.0 03:09:04 10° W 03:12:53 51° WNW 03:12:53 51° WNW
Cosmos 2369 Rocket 4.3 03:15:05 10° S 03:15:59 15° S 03:15:59 15° S
DELTA 2 R/B (1) 4.3 03:17:24 10° WSW 03:21:20 48° SW 03:21:20 48° SW
Intelsat 5-1 Rocket 4.5 03:20:36 10° SW 03:25:11 35° SSE 03:25:11 35° SSE
SJ 16-02 3.7 03:24:39 10° WSW 03:27:44 19° WNW 03:28:18 19° NW
CZ-3 R/B 3.8 11:03:31 46° SSW 11:08:41 55° S 11:17:40 10° E
SL-16 R/B 4.4 11:15:39 10° SSE 11:17:35 21° SSE 11:17:35 21° SSE
